Starlink 3268

operational
NORAD ID: 50190 Int'l Des: 2021-125 Owner: SPXS Country: US Constellation: starlink
LEOCIRCULAR

Starlink 3268について

説明を読み込み中...

リアルタイム位置

3D地球を読み込み中...

次回通過

高度履歴

Altitude vs Time

uPlot chart will show altitude changes over time

軌道要素

1 50190U 21125AL 25308.77486963 -.00001978 00000-0 -10619-3 0 9991
2 50190 53.2159 79.8826 0001590 79.6439 280.4732 15.08842293217878
Epoch: Nov 4, 2025 • Age: 7 hours

現在のステータス

高度 539.7 km
速度 7.59 km/s
衛星直下点 12.99°N, 178.96°E
打ち上げ日 Dec 18, 2021
運用期間 3.8 years
タイプ internet

技術仕様

分類 Payload
質量 290.00 kg
乾燥質量 270.00 kg
総質量 290.00 kg
長さ 0.20 m
直径 2.80 m
スパン 9.00 m
形状 Box + pan
製造者 SPXS
バスタイプ Starlink
フェーズステータス In Orbit
所有者/国 SPXS/US

大規模コンステレーション

Loading constellations...